Location: Recife
(8.0585°S, 34.8848°W)
Time: 13:10:27
(UTC-03:00)

Vanguard 2 - Pass Details

Date: 20 April 2026
Orbit: 553 x 2895 km, 32.9° (Epoch: 13 May)

Event Time Altitude Azimuth Distance (km) Brightness Sun altitude
Rises 20:07:28 0° 278° (W) 4,784 12.4 -42.9°
Reaches altitude 10° 20:10:26 10° 271° (W) 4,089 11.8 -43.6°
Maximum altitude 20:21:29 44° 202° (SSW) 3,031 10.4 -46.3°
Enters shadow 20:22:30 44° 193° (SSW) 3,100 10.4 -46.6°
